This is the latest recevied weather packets stored in our database for station/object K2MRS. If no packets are shown the sender has not sent any weather packets the latest 1 day(s).
| Time | Temp. | Humidity | Pressure | Rain* | Wind** | Luminosity | Snow |
|---|---|---|---|---|---|---|---|
| 1778005909 | 14.44° C | 83% | 1016.7 hPa | 0 mm | 0 m/s | 299 W/m² | - |
| 1778005610 | 14.44° C | 84% | 1016.7 hPa | 0 mm | 0 m/s | 353 W/m² | - |
| 1778005309 | 13.89° C | 85% | 1016.7 hPa | 0 mm | 0 m/s | 366 W/m² | - |
| 1778005009 | 13.89° C | 86% | 1016.6 hPa | 0 mm | 0 m/s | 359 W/m² | - |
| 1778004709 | 13.89° C | 86% | 1016.7 hPa | 0 mm | 0 m/s | 178 W/m² | - |
| 1778004409 | 13.89° C | 86% | 1016.7 hPa | 0 mm | 0 m/s | 142 W/m² | - |
| 1778004240 | 13.89° C | 87% | 1016.6 hPa | 0 mm | 0 m/s | 155 W/m² | - |
| 1778003810 | 13.89° C | 87% | 1016.4 hPa | 0 mm | 0 m/s | 179 W/m² | - |
| 1778003509 | 13.89° C | 87% | 1016.6 hPa | 0 mm | 0 m/s | 176 W/m² | - |
| 1778003210 | 13.89° C | 88% | 1016.2 hPa | 0 mm | 0 m/s | 155 W/m² | - |
| 1778002909 | 13.89° C | 88% | 1016.2 hPa | 0 mm | 0 m/s | 171 W/m² | - |
| 1778002604 | 13.33° C | 88% | 1016.2 hPa | 0 mm | 0.45 m/s, 267° | 216 W/m² | - |
| 1778002303 | 13.33° C | 90% | 1016.2 hPa | 0 mm | 0 m/s | 272 W/m² | - |
| 1778002001 | 13.33° C | 90% | 1016.1 hPa | 0 mm | 0 m/s | 278 W/m² | - |
| 1778001699 | 13.33° C | 91% | 1016.1 hPa | 0 mm | 0 m/s | 264 W/m² | - |
| 1778001400 | 13.33° C | 91% | 1016.1 hPa | 0 mm | 0 m/s | 223 W/m² | - |
| 1778001099 | 13.33° C | 92% | 1016.1 hPa | 0 mm | 0 m/s | 264 W/m² | - |
| 1778000799 | 12.78° C | 92% | 1016.2 hPa | 0 mm | 0 m/s | 264 W/m² | - |
| 1778000630 | 12.78° C | 92% | 1016.2 hPa | 0 mm | 0 m/s | 265 W/m² | - |
| 1778000316 | 12.78° C | 92% | 1016.2 hPa | 0 mm | 0 m/s | 221 W/m² | - |
| 1778000026 | 12.78° C | 92% | 1016.2 hPa | 0 mm | 0 m/s | 144 W/m² | - |
| 1777999599 | 12.78° C | 93% | 1016.2 hPa | 0 mm | 0 m/s | 193 W/m² | - |
| 1777999298 | 12.78° C | 93% | 1016.2 hPa | 0 mm | 0 m/s | 178 W/m² | - |
| 1777998997 | 12.22° C | 93% | 1016.1 hPa | 0 mm | 0 m/s | 132 W/m² | - |
| 1777998828 | 12.22° C | 93% | 1016.1 hPa | 0 mm | 0 m/s | 141 W/m² | - |
* Rain latest hour (hover to see other rain measurements)
** Current wind speed in m/s (hover to see current wind gust speed)